Date String (YYYY-MM-DD hh:mm:ss) UTC,Instrument flags,absolute air pressure of the measurement (hPa),sample flow rate (lpm),inlet stack bypass flow (lpm),air temperature of the measurement (°C),ambient temperature measured by the external sensor (°C),aerosol sample conditioner tube jacket temperature (°C),OPC LED temperature (°C),internal box temperature (°C),relative humidity of the measurement (%),span deviation,mass concentration of particles derived from Lorenz-Mie calculation of OPC scattering (μg/m³),mass concentration of particles derived from Lorenz-Mie calculation of OPC scattering (μg/m³),mass concentration of particles derived from Lorenz-Mie calculation of OPC scattering (μg/m³)
DateTimeUTC,F1_M11,P_M11,Q1_M11,Q2_M11,T1_M11,T2_M11,T3_M11,T4_M11,T5_M11,U1_M11,ZSPAN_M11,X0_M11,X2_M11,X1_M11
2024-02-25 21:00:00,SystemResetWarning,0822.4,4.99,000.00,022.8,022.2,000.0,031.0,024.5,07.8,0000.0,0010.02,0003.04,0001.43
2024-02-25 21:01:00,SystemResetWarning,0822.4,4.99,000.00,022.9,022.2,000.0,031.0,024.5,07.8,0000.0,0010.03,0003.04,0001.42
2024-02-25 21:02:00,SystemResetWarning,0822.4,5.00,000.00,022.9,022.2,000.0,031.0,024.6,07.6,0000.0,0010.22,0002.98,0001.42
2024-02-25 21:03:00,SystemResetWarning,0822.2,5.01,000.00,022.9,022.2,000.0,031.0,024.6,07.5,0000.0,0010.20,0003.05,0001.42
2024-02-25 21:04:00,SystemResetWarning,0822.4,5.00,000.00,022.9,022.2,000.0,031.0,024.6,07.6,0000.0,0010.53,0003.03,0001.42
2024-02-25 21:05:00,SystemResetWarning,0822.4,5.01,000.00,022.9,022.2,000.0,031.0,024.6,07.9,0000.0,0010.58,0003.09,0001.41
2024-02-25 21:06:00,SystemResetWarning,0822.3,5.01,000.00,022.9,022.2,000.0,031.0,024.6,07.7,0000.0,0010.04,0003.15,0001.40
2024-02-25 21:07:00,SystemResetWarning,0822.4,5.00,000.00,022.9,022.2,000.0,031.0,024.6,07.6,0000.0,0009.84,0003.11,0001.40
2024-02-25 21:08:00,SystemResetWarning,0822.4,4.99,000.00,022.9,022.2,000.0,031.0,024.6,07.7,0000.0,0009.44,0003.11,0001.39
2024-02-25 21:09:00,SystemResetWarning,0822.4,5.00,000.00,022.9,022.2,000.0,031.0,024.6,07.8,0000.0,0009.37,0003.13,0001.37
2024-02-25 21:10:00,SystemResetWarning,0822.5,5.00,000.00,022.9,022.2,000.0,031.0,024.6,07.8,0000.0,0009.91,0003.11,0001.36
2024-02-25 21:11:00,SystemResetWarning,0822.3,5.00,000.00,022.9,022.2,000.0,031.1,024.6,07.8,0000.0,0009.95,0003.09,0001.36
2024-02-25 21:12:00,SystemResetWarning,0822.3,5.00,000.00,022.9,022.2,000.0,031.1,024.6,07.7,0000.0,0009.57,0003.06,0001.36
2024-02-25 21:13:00,SystemResetWarning,0822.2,4.99,000.00,022.9,022.2,000.0,031.1,024.6,07.7,0000.0,0009.90,0003.06,0001.35
2024-02-25 21:14:00,SystemResetWarning,0822.2,5.00,000.00,022.9,022.2,000.0,031.1,024.7,07.7,0000.0,0009.29,0002.99,0001.35
2024-02-25 21:15:00,SystemResetWarning,0822.1,4.99,000.00,023.0,022.3,000.0,031.1,024.7,07.6,0000.0,0008.56,0002.93,0001.37
2024-02-25 21:16:00,SystemResetWarning,0822.3,5.01,000.00,023.0,022.3,000.0,031.1,024.7,07.6,0000.0,0008.47,0002.87,0001.37
2024-02-25 21:17:00,SystemResetWarning,0822.4,5.01,000.00,023.0,022.3,000.0,031.1,024.7,07.8,0000.0,0009.29,0002.76,0001.37
2024-02-25 21:18:00,SystemResetWarning,0822.0,4.98,000.00,023.0,022.3,000.0,031.1,024.7,07.8,0000.0,0009.37,0002.77,0001.37
2024-02-25 21:19:00,SystemResetWarning,0822.0,5.00,000.00,023.0,022.3,000.0,031.1,024.7,07.8,0000.0,0009.22,0002.72,0001.37
2024-02-25 21:20:00,SystemResetWarning,0822.0,5.01,000.00,023.0,022.3,000.0,031.1,024.7,07.6,0000.0,0009.67,0002.72,0001.38
2024-02-25 21:21:00,SystemResetWarning,0821.8,5.00,000.00,023.0,022.3,000.0,031.1,024.7,07.8,0000.0,0009.20,0002.62,0001.36
2024-02-25 21:22:00,SystemResetWarning,0822.0,5.00,000.00,023.0,022.3,000.0,031.1,024.7,07.9,0000.0,0009.32,0002.50,0001.35
2024-02-25 21:23:00,SystemResetWarning,0821.8,4.99,000.00,023.0,022.3,000.0,031.1,024.7,07.8,0000.0,0010.09,0002.48,0001.34
2024-02-25 21:24:00,SystemResetWarning,0821.8,4.99,000.00,023.0,022.3,000.0,031.2,024.7,07.8,0000.0,0009.90,0002.47,0001.34
2024-02-25 21:25:00,SystemResetWarning,0821.7,5.00,000.00,023.0,022.3,000.0,031.2,024.8,07.9,0000.0,0009.95,0002.53,0001.34
2024-02-25 21:26:00,SystemResetWarning,0821.8,5.01,000.00,023.0,022.3,000.0,031.2,024.8,07.7,0000.0,0010.28,0002.61,0001.32
2024-02-25 21:27:00,SystemResetWarning,0821.9,5.01,000.00,023.0,022.3,000.0,031.2,024.8,07.8,0000.0,0011.21,0002.63,0001.31
2024-02-25 21:28:00,SystemResetWarning,0821.8,5.00,000.00,023.0,022.3,000.0,031.2,024.8,07.7,0000.0,0010.39,0002.60,0001.31
2024-02-25 21:29:00,SystemResetWarning,0821.8,4.98,000.00,023.0,022.3,000.0,031.2,024.8,07.8,0000.0,0010.35,0002.61,0001.30
2024-02-25 21:30:00,SystemResetWarning,0821.8,4.99,000.00,023.1,022.4,000.0,031.2,024.8,07.7,0000.0,0011.13,0002.66,0001.30
2024-02-25 21:31:00,SystemResetWarning,0821.8,5.01,000.00,023.1,022.4,000.0,031.2,024.8,07.8,0000.0,0011.13,0002.70,0001.29
2024-02-25 21:32:00,SystemResetWarning,0821.7,5.00,000.00,023.1,022.4,000.0,031.2,024.8,07.7,0000.0,0011.86,0002.69,0001.29
2024-02-25 21:33:00,SystemResetWarning,0821.6,5.00,000.00,023.1,022.4,000.0,031.2,024.8,07.7,0000.0,0012.43,0002.74,0001.29
2024-02-25 21:34:00,SystemResetWarning,0821.8,4.99,000.00,023.1,022.4,000.0,031.3,024.8,07.8,0000.0,0011.96,0002.82,0001.30
2024-02-25 21:35:00,SystemResetWarning,0821.5,4.99,000.00,023.1,022.4,000.0,031.2,024.8,08.0,0000.0,0011.18,0002.88,0001.30
2024-02-25 21:36:00,SystemResetWarning,0821.7,5.00,000.00,023.1,022.4,000.0,031.3,024.8,07.4,0000.0,0011.15,0002.87,0001.30
2024-02-25 21:37:00,SystemResetWarning,0821.6,5.01,000.00,023.1,022.4,000.0,031.3,024.8,07.6,0000.0,0011.10,0002.85,0001.31
2024-02-25 21:38:00,SystemResetWarning,0821.6,5.01,000.00,023.1,022.4,000.0,031.3,024.8,07.8,0000.0,0010.54,0002.80,0001.31
2024-02-25 21:39:00,SystemResetWarning,0821.5,4.99,000.00,023.1,022.4,000.0,031.3,024.8,07.6,0000.0,0010.95,0002.80,0001.30
2024-02-25 21:40:00,SystemResetWarning,0821.4,5.00,000.00,023.1,022.4,000.0,031.3,024.8,07.6,0000.0,0011.51,0002.82,0001.30
2024-02-25 21:41:00,SystemResetWarning,0821.7,4.99,000.00,023.1,022.4,000.0,031.3,024.8,07.6,0000.0,0010.85,0002.71,0001.29
2024-02-25 21:42:00,SystemResetWarning,0821.6,5.00,000.00,023.1,022.4,000.0,031.3,024.9,07.6,0000.0,0010.07,0002.62,0001.28
2024-02-25 21:43:00,SystemResetWarning,0821.5,5.01,000.00,023.1,022.4,000.0,031.3,024.9,07.6,0000.0,0009.53,0002.62,0001.27
2024-02-25 21:44:00,SystemResetWarning,0821.4,5.01,000.00,023.1,022.5,000.0,031.3,024.9,07.7,0000.0,0008.45,0002.63,0001.27
2024-02-25 21:45:00,SystemResetWarning,0821.6,4.99,000.00,023.1,022.5,000.0,031.3,024.9,07.7,0000.0,0008.05,0002.59,0001.27
2024-02-25 21:46:00,SystemResetWarning,0821.6,4.99,000.00,023.1,022.5,000.0,031.3,024.9,07.5,0000.0,0008.14,0002.57,0001.27
2024-02-25 21:47:00,SystemResetWarning,0821.4,5.01,000.00,023.2,022.4,000.0,031.3,024.9,07.7,0000.0,0009.21,0002.59,0001.28
2024-02-25 21:48:00,SystemResetWarning,0821.6,5.01,000.00,023.2,022.4,000.0,031.4,024.9,07.8,0000.0,0009.73,0002.68,0001.28
2024-02-25 21:49:00,SystemResetWarning,0821.5,4.99,000.00,023.2,022.4,000.0,031.4,024.9,07.8,0000.0,0010.32,0002.75,0001.27
2024-02-25 21:50:00,SystemResetWarning,0821.7,5.00,000.00,023.2,022.4,000.0,031.4,024.9,07.6,0000.0,0011.00,0002.82,0001.26
2024-02-25 21:51:00,SystemResetWarning,0821.1,4.99,000.00,023.2,022.4,000.0,031.4,024.9,07.7,0000.0,0010.86,0002.77,0001.25
2024-02-25 21:52:00,SystemResetWarning,0821.4,5.01,000.00,023.2,022.4,000.0,031.4,024.9,07.6,0000.0,0011.25,0002.88,0001.25
2024-02-25 21:53:00,SystemResetWarning,0821.2,5.00,000.00,023.2,022.4,000.0,031.4,024.9,07.7,0000.0,0011.48,0002.99,0001.25
2024-02-25 21:54:00,SystemResetWarning,0821.4,5.00,000.00,023.2,022.4,000.0,031.4,024.8,07.6,0000.0,0011.47,0002.95,0001.23
2024-02-25 21:55:00,SystemResetWarning,0821.1,5.00,000.00,023.2,022.4,000.0,031.4,024.9,07.6,0000.0,0011.41,0002.91,0001.22
2024-02-25 21:56:00,SystemResetWarning,0821.2,4.99,000.00,023.2,022.4,000.0,031.4,024.9,07.6,0000.0,0012.04,0002.84,0001.20
2024-02-25 21:57:00,SystemResetWarning,0821.1,4.99,000.00,023.2,022.4,000.0,031.4,024.8,07.6,0000.0,0012.67,0002.93,0001.19
2024-02-25 21:58:00,SystemResetWarning,0821.2,5.01,000.00,023.2,022.4,000.0,031.4,024.8,07.7,0000.0,0012.21,0002.98,0001.18
2024-02-25 21:59:00,SystemResetWarning,0821.5,5.01,000.00,023.2,022.4,000.0,031.4,024.9,07.8,0000.0,0013.42,0002.94,0001.17
